User: anonymous   Login
Location: La Vergne
(36.0160°N, 86.5820°W)
Time: 14:54:55
(UTC-05:00)
Language:

Cosmos 1703 Rocket - Orbit

View from above orbital plane
View from above orbital plane
View from above satellite
View from above satellite

Ground track
Ground track

The orbit data is extracted from the following two-line orbital elements,

1 16263U 85108B   16238.92634064 +.00000107 +00000-0 +10207-4 0  9996
2 16263 082.5035 031.2929 0018811 238.2977 290.9009 14.82935049639547
Epoch (UTC): 25 August 2016 22:13:55
Eccentricity: 0.0018811
inclination: 82.5035°
perigee height: 607 km
apogee height: 633 km
right ascension of ascending node: 31.2929°
argument of perigee: 238.2977°
revolutions per day: 14.82935049
mean anomaly at epoch: 290.9009°
orbit number at epoch: 63954

The dashed part of the orbit path shows where the satellite is in the earth's shadow,  

DLR